Location: Baix
(44.7118°N, 4.7648°E)
Time: 23:21:24
(UTC+00:00)

Transit 4A - All Passes

Search period start: 25 November 2020 00:00
Search period end: 05 December 2020 00:00
Orbit: 862 x 982 km, 66.8° (Epoch: 25 November)

Date Brightness Start Highest point End Pass type
(mag) Time Alt. Az. Time Alt. Az. Time Alt. Az.
25 Nov - 07:15:44 10° SSE 07:20:46 26° ESE 07:25:54 10° NE daylight
25 Nov - 09:00:23 10° SW 09:06:40 64° NW 09:13:05 10° NNE daylight
25 Nov - 10:50:04 10° WNW 10:54:23 18° NNW 10:58:43 10° NNE daylight
25 Nov - 14:30:07 10° N 14:33:20 14° NNE 14:36:32 10° NE daylight
25 Nov - 16:15:31 10° NNW 16:21:35 42° NE 16:27:27 10° ESE daylight
25 Nov - 18:02:04 10° NW 18:07:56 41° WSW 18:13:38 10° S visible
26 Nov - 07:24:08 10° S 07:29:51 37° ESE 07:35:40 10° NE daylight
26 Nov - 09:10:03 10° WSW 09:16:08 47° NW 09:22:20 10° NNE daylight
26 Nov - 11:00:43 10° WNW 11:04:14 15° NNW 11:07:47 10° N daylight
26 Nov - 14:39:10 10° N 14:43:14 17° NNE 14:47:14 10° ENE daylight
26 Nov - 16:24:45 10° NNW 16:31:03 58° NE 16:37:11 10° SE visible
26 Nov - 18:11:48 10° NW 18:17:02 28° WSW 18:22:10 10° SSW visible
27 Nov - 07:32:55 10° S 07:39:01 54° ESE 07:45:15 10° NE daylight
27 Nov - 09:19:56 10° WSW 09:25:41 35° NW 09:31:32 10° NNE daylight
27 Nov - 11:11:35 10° NW 11:14:11 12° NNW 11:16:47 10° N daylight
27 Nov - 14:48:16 10° NNW 14:53:02 21° NE 14:57:43 10° E daylight
27 Nov - 16:34:03 10° NNW 16:40:28 80° ENE 16:46:40 10° SE visible
27 Nov - 18:21:50 10° WNW 18:26:04 19° WSW 18:30:13 10° SW visible
28 Nov - 06:00:13 10° SE 06:02:58 13° E 06:05:45 10° ENE visible
28 Nov - 07:41:58 10° SSW 07:48:16 76° ESE 07:54:42 10° NE daylight
28 Nov - 09:30:01 10° W 09:35:20 27° NW 09:40:42 10° NNE daylight
28 Nov - 11:22:46 10° NNW 11:24:11 11° NNW 11:25:35 10° N daylight
28 Nov - 13:12:30 10° N 13:13:55 11° NNE 13:15:20 10° NNE daylight
28 Nov - 14:57:24 10° NNW 15:02:45 27° NE 15:08:00 10° E daylight
28 Nov - 16:43:25 10° NW 16:49:46 74° WSW 16:55:56 10° SSE visible
28 Nov - 18:32:41 10° WNW 18:35:00 12° W 18:37:18 10° WSW visible
29 Nov - 06:07:31 10° SSE 06:11:56 20° ESE 06:16:24 10° ENE visible
29 Nov - 07:51:15 10° SW 07:57:36 78° WNW 08:04:04 10° NNE daylight
29 Nov - 09:40:18 10° W 09:45:03 21° NW 09:49:50 10° NNE daylight
29 Nov - 13:21:19 10° N 13:23:55 12° NNE 13:26:30 10° NE daylight
29 Nov - 15:06:34 10° NNW 15:12:23 35° NE 15:18:03 10° ESE daylight
29 Nov - 16:52:54 10° NW 16:59:00 52° WSW 17:04:57 10° S visible
30 Nov - 06:15:39 10° SSE 06:20:58 30° ESE 06:26:23 10° NE visible
30 Nov - 08:00:46 10° SW 08:07:01 57° NW 08:13:21 10° NNE daylight
30 Nov - 09:50:49 10° WNW 09:54:52 17° NNW 09:58:56 10° N daylight
30 Nov - 13:30:19 10° N 13:33:51 15° NNE 13:37:20 10° ENE daylight
30 Nov - 15:15:47 10° NNW 15:21:56 47° NE 15:27:54 10° ESE daylight
30 Nov - 17:02:29 10° NW 17:08:10 36° WSW 17:13:41 10° S visible
01 Dec - 06:24:11 10° S 06:30:06 43° ESE 06:36:05 10° NE visible
01 Dec - 08:10:30 10° WSW 08:16:30 42° NW 08:22:36 10° NNE daylight
01 Dec - 10:01:32 10° NW 10:04:45 14° NNW 10:07:58 10° N daylight
01 Dec - 13:39:23 10° NNW 13:43:42 18° NNE 13:47:57 10° ENE daylight
01 Dec - 15:25:02 10° NNW 15:31:24 65° NE 15:37:32 10° SE daylight
01 Dec - 17:12:19 10° NW 17:17:14 24° WSW 17:22:02 10° SSW visible
02 Dec - 06:33:04 10° SSW 06:39:16 61° ESE 06:45:37 10° NE daylight
02 Dec - 08:20:28 10° WSW 08:26:05 32° NW 08:31:47 10° NNE daylight
02 Dec - 10:12:29 10° NW 10:14:42 12° NNW 10:16:55 10° N daylight
02 Dec - 13:48:29 10° NNW 13:53:29 23° NE 13:58:22 10° E daylight
02 Dec - 15:34:21 10° NNW 15:40:46 89° ENE 15:46:57 10° SSE daylight
02 Dec - 17:22:33 10° WNW 17:26:13 16° WSW 17:29:51 10° SW visible
03 Dec - 04:59:37 10° SE 05:03:08 15° ESE 05:06:40 10° ENE visible
03 Dec - 06:42:13 10° SSW 06:48:33 86° ESE 06:55:02 10° NNE daylight
03 Dec - 08:30:37 10° W 08:35:46 25° NW 08:40:57 10° NNE daylight
03 Dec - 10:23:58 10° NNW 10:24:43 10° NNW 10:25:29 10° N daylight
03 Dec - 12:12:36 10° N 12:14:28 11° NNE 12:16:19 10° NNE daylight
03 Dec - 13:57:39 10° NNW 14:03:10 30° NE 14:08:33 10° ESE daylight
03 Dec - 15:43:46 10° NW 15:50:03 65° WSW 15:56:07 10° SSE daylight
03 Dec - 17:34:56 10° W 17:35:08 10° W 17:35:20 10° W visible
04 Dec - 05:07:18 10° SSE 05:12:07 23° ESE 05:16:59 10° NE visible
04 Dec - 06:51:35 10° SW 06:57:55 70° NW 07:04:22 10° NNE daylight
04 Dec - 08:41:00 10° WNW 08:45:31 20° NNW 08:50:03 10° NNE daylight
04 Dec - 12:21:30 10° N 12:24:26 13° NNE 12:27:20 10° NE daylight
04 Dec - 14:06:50 10° NNW 14:12:46 39° NE 14:18:32 10° ESE daylight
04 Dec - 15:53:16 10° NW 15:59:14 45° WSW 16:05:02 10° S daylight
